Theta_e
330 330 331 331 331 332 332 332 333 333 332 330 330 329 326 324 323 323 321 318 318 319 319 318 319 320 320 319 320 321 322 323 327 326 325 324 329 330 331 332 333 335 334
329 330 331 331 331 332 331 331 331 330 329 328 326 324 323 322 321 322 321 319 318 319 318 318 318 317 317 318 318 319 319 322 323 327 325 326 327 328 330 332 332 333 334
324 325 327 327 327 328 328 328 328 327 326 325 324 323 322 321 320 320 320 320 319 318 318 318 317 317 317 317 317 317 317 317 319 322 323 323 324 326 327 330 332 332 333
319 320 322 322 321 322 321 321 321 321 321 321 321 321 321 320 320 319 319 319 319 319 318 318 317 317 316 316 316 316 316 317 317 319 321 322 324 324 326 329 330 330 331
315 315 316 315 315 315 316 316 317 317 317 317 317 318 318 318 318 318 318 319 320 320 319 318 318 317 316 315 314 312 312 312 312 314 317 321 322 324 326 327 328 329 329
312 312 312 312 312 312 312 313 313 313 313 314 314 314 314 314 314 313 313 315 317 318 320 319 318 317 316 313 312 310 311 312 314 315 316 322 323 324 326 326 326 327 331
310 309 309 309 309 309 309 309 309 310 310 311 311 311 310 311 311 311 311 312 313 315 316 318 317 315 315 313 313 311 310 310 312 316 318 319 320 321 324 325 326 326 327
308 308 308 307 307 307 306 306 307 307 307 307 307 307 307 308 307 307 307 307 309 310 311 313 315 315 315 314 312 312 311 310 311 315 317 318 320 322 323 324 325 321 317
306 306 305 305 304 304 304 305 305 306 306 306 306 306 307 307 307 306 305 306 307 307 308 309 311 314 314 314 312 312 311 310 310 311 315 316 318 319 321 322 317 318 321
305 304 303 303 304 304 305 305 304 304 305 305 305 306 305 305 304 302 301 302 303 304 304 305 306 308 312 312 311 311 311 310 310 312 317 318 319 320 321 320 317 316 319
302 302 302 302 302 303 303 303 303 303 303 302 302 299 299 299 301 301 301 301 302 303 304 305 306 306 308 309 309 309 309 309 309 310 317 318 317 317 319 317 318 316 320
301 301 301 301 302 302 302 301 298 297 296 296 296 297 300 302 301 301 302 301 301 302 303 304 305 307 306 307 306 307 306 305 308 313 318 319 317 315 316 315 313 315 312
300 300 300 300 300 299 297 295 295 296 296 295 296 297 297 297 298 299 300 300 300 302 303 303 303 305 304 304 305 305 304 305 307 316 317 316 313 315 314 314 317 321 322
298 298 298 294 294 295 296 296 295 295 295 295 296 296 297 297 298 298 299 300 300 301 302 303 303 303 304 305 305 307 306 308 313 315 316 315 313 314 316 317 319 321 322
294 292 292 293 293 294 293 293 294 294 295 295 295 295 295 296 297 297 296 296 297 296 297 304 305 306 306 306 307 307 309 311 315 315 316 317 316 315 315 319 320 321 324
291 291 291 292 292 292 293 294 295 295 296 295 295 294 294 294 294 294 294 294 294 295 297 301 304 305 306 308 308 309 313 313 314 315 316 317 318 319 318 318 320 323 323
289 290 290 291 291 292 293 295 296 297 297 297 297 297 296 296 296 295 294 293 294 295 297 300 305 305 305 309 308 312 313 314 314 316 316 317 319 318 320 321 322 323 324
289 289 290 291 292 293 295 296 297 298 298 298 298 298 298 299 298 297 295 294 294 295 298 300 304 305 306 308 312 312 312 314 314 315 314 317 318 322 321 322 323 323 324
290 291 292 293 294 295 295 296 296 296 297 297 297 297 298 297 297 296 295 294 296 299 300 302 303 304 305 308 310 312 311 311 313 314 314 317 321 322 322 322 323 323 324
290 291 291 292 292 292 293 294 294 295 295 295 295 295 296 295 297 296 295 295 297 298 300 302 304 304 305 307 311 313 313 312 312 312 314 317 322 322 322 322 323 323 322
290 290 290 292 292 291 292 292 293 293 293 292 292 293 293 294 296 295 295 296 296 297 299 302 304 305 306 307 310 312 312 311 310 312 314 319 322 322 322 322 321 321 320
288 290 291 291 290 290 290 290 291 291 290 291 291 291 291 294 296 296 296 296 296 297 300 302 304 304 306 308 309 310 311 309 311 315 317 319 321 322 322 322 321 321 321
289 291 290 288 288 288 288 288 289 289 289 289 290 290 290 291 293 296 296 296 297 298 299 300 303 304 305 306 308 309 311 311 313 314 317 319 320 321 321 321 321 321 321
287 289 289 289 287 287 287 286 287 287 287 288 288 288 288 289 290 292 297 297 297 298 298 299 301 303 304 306 307 308 309 308 309 312 313 318 320 320 321 320 320 320 320
287 287 288 288 287 287 288 288 287 286 286 286 287 287 287 288 288 289 292 296 298 299 299 300 300 301 303 305 306 307 306 305 305 305 308 311 318 320 320 320 320 320 319
284 285 285 287 286 286 286 286 286 286 286 285 285 285 286 286 287 288 289 292 296 299 299 300 300 301 302 303 305 306 305 304 303 303 304 310 318 319 320 320 320 318 318
Wind_Speed
13 13 12 11 11 12 12 11 11 12 13 14 15 16 17 17 17 17 16 16 17 16 17 17 19 19 20 21 22 23 23 24 16 25 28 31 27 28 29 27 26 24 22
7 8 9 9 7 7 7 7 7 9 11 14 16 19 19 20 20 20 20 20 21 22 22 21 22 21 21 21 23 24 25 24 26 20 28 31 29 27 28 25 24 24 22
6 6 6 4 3 1 3 4 7 9 13 16 18 21 22 23 23 24 25 26 27 27 26 26 25 23 23 24 24 25 26 27 27 28 26 29 30 26 26 25 23 21 20
6 5 5 5 4 4 5 7 9 12 15 17 20 23 24 26 28 29 30 31 32 32 31 30 29 28 27 26 26 25 25 26 27 28 30 30 28 27 25 23 22 21 21
8 7 7 7 6 7 8 10 12 15 17 20 23 25 28 30 32 34 35 35 34 34 34 34 33 32 32 30 28 26 25 27 30 29 28 27 28 27 23 23 22 24 22
8 8 9 10 12 13 15 17 19 21 22 24 27 29 32 34 36 36 35 35 36 36 35 35 35 34 33 32 35 36 29 27 29 30 29 23 26 24 27 26 21 17 12
11 11 13 14 17 18 20 21 23 25 27 28 30 32 35 35 35 37 37 37 37 37 37 36 37 40 37 35 32 32 31 29 33 34 33 30 29 29 27 24 23 20 18
14 16 17 18 20 22 23 24 26 27 29 30 31 33 35 35 35 35 34 34 37 38 37 37 37 38 38 35 33 32 32 29 29 32 33 34 32 30 28 24 20 13 10
18 19 20 20 23 24 25 26 27 28 29 30 32 32 33 33 31 30 26 29 32 33 35 37 38 37 34 33 31 33 32 29 30 33 37 40 40 39 32 19 13 11 4
19 20 21 22 23 25 26 27 27 27 28 27 28 28 29 29 27 27 27 26 25 28 29 33 35 34 30 31 31 32 31 29 29 31 30 28 29 27 25 18 18 12 12
21 22 23 23 24 24 25 24 23 25 26 26 26 28 33 31 28 27 27 27 27 27 25 25 26 32 35 36 36 29 30 26 31 32 31 24 23 27 30 22 29 31 22
21 23 23 22 22 22 22 23 23 22 23 25 25 27 26 23 23 24 22 23 26 27 27 23 24 20 9 18 20 24 27 32 27 26 25 19 14 17 29 29 36 29 19
22 22 21 22 22 21 21 22 23 21 21 22 21 21 23 22 22 23 23 23 20 23 25 23 23 19 22 21 23 27 28 26 24 22 16 14 15 15 24 27 23 26 17
21 21 20 20 21 22 21 19 20 20 20 20 20 20 21 23 22 20 19 18 17 15 15 19 21 22 21 22 20 22 25 25 23 19 17 14 19 14 12 20 21 22 19
20 19 19 19 19 20 20 20 21 24 23 22 23 22 21 22 21 18 20 17 12 16 21 12 13 17 17 21 18 19 20 22 21 20 15 12 14 14 17 17 21 19 14
18 17 18 19 19 19 20 22 20 25 26 26 29 31 32 32 35 33 31 27 26 22 16 14 16 14 16 14 11 14 11 16 25 17 15 12 10 16 15 21 22 16 14
18 19 19 19 18 18 18 18 17 21 20 20 20 22 24 29 29 30 27 23 20 14 13 14 16 12 15 9 15 16 7 13 23 15 9 9 10 15 20 19 22 14 12
18 19 20 18 17 18 18 19 18 17 19 22 23 23 24 25 26 21 17 14 14 15 14 12 14 11 15 14 15 12 7 8 15 13 11 15 15 16 23 22 14 12 9
18 17 16 17 16 16 16 16 15 16 16 17 20 20 20 23 13 9 7 10 10 12 13 14 15 12 14 13 6 15 11 9 16 13 14 18 24 18 17 14 11 8 12
14 15 15 15 14 14 14 14 15 15 15 15 17 18 22 19 9 6 4 7 9 9 12 14 13 11 14 12 10 10 12 9 12 14 18 22 14 15 12 7 9 10 9
13 14 14 12 12 13 13 14 14 15 16 16 17 20 24 16 10 7 6 5 7 9 12 11 11 9 12 13 9 5 9 7 5 12 17 16 11 9 7 7 6 7 6
14 13 14 14 14 14 14 14 14 14 16 16 18 20 24 17 10 9 6 5 5 9 10 9 9 5 7 8 8 7 8 5 7 10 17 12 9 9 8 7 6 5 6
13 14 15 15 16 16 16 16 15 16 17 17 18 19 20 20 18 8 8 6 4 4 10 6 5 9 8 4 2 6 10 8 5 3 7 8 8 9 8 8 8 9 8
16 16 16 17 18 17 18 17 17 18 18 18 18 19 19 20 20 19 10 7 4 3 5 6 5 9 8 7 5 5 4 4 1 2 4 3 7 8 10 9 11 9 7
19 18 19 20 20 21 21 21 20 20 19 20 20 21 21 21 21 20 16 10 6 4 4 9 9 10 9 8 10 10 5 6 1 3 6 7 7 10 9 10 8 8 5
21 21 20 21 22 22 22 21 22 22 22 22 22 22 21 21 21 21 22 16 11 6 5 5 7 13 14 13 13 12 8 9 4 5 8 7 10 10 12 9 10 8 6
Wind_Direction
131 138 148 153 159 169 180 188 192 197 204 211 218 223 228 234 234 233 240 248 244 244 249 253 257 263 266 272 275 274 273 273 272 279 284 286 281 282 283 281 280 276 275
113 126 135 145 156 167 181 195 212 226 234 239 239 240 242 243 245 244 246 251 247 246 249 252 257 260 262 265 269 271 277 281 282 289 285 288 286 286 284 280 278 275 272
80 98 95 110 130 163 242 248 251 252 251 251 252 252 253 255 257 255 254 255 255 255 254 255 258 260 262 265 270 275 277 278 279 279 284 283 284 289 286 279 271 271 267
54 60 60 44 17 333 300 284 275 267 263 260 259 261 262 262 262 262 260 259 256 256 256 257 259 260 261 261 263 267 271 274 276 277 279 279 281 286 283 276 271 256 258
30 20 14 359 342 319 302 291 285 277 272 270 270 267 266 264 262 260 259 258 258 259 258 258 257 256 257 257 257 264 274 279 278 276 275 284 282 281 278 279 269 270 264
359 342 330 322 313 305 298 292 286 282 280 277 272 269 268 265 264 265 265 265 265 265 262 258 256 255 251 251 253 260 261 271 274 272 272 268 273 274 274 276 270 270 270
331 315 307 301 294 290 288 285 281 279 277 275 273 271 270 269 270 270 268 265 264 263 263 262 259 256 249 247 248 252 257 265 266 263 267 269 274 275 276 271 263 255 256
307 302 298 295 292 291 288 285 284 281 278 276 276 275 276 274 274 275 276 274 270 269 268 265 261 258 251 250 253 254 262 271 275 269 262 263 268 268 269 261 255 242 240
300 298 297 296 295 292 289 287 284 283 281 279 278 279 279 280 281 282 283 276 274 274 272 267 262 257 251 252 248 251 261 270 277 273 270 266 265 265 261 229 188 196 191
299 298 296 294 291 289 289 288 288 286 285 285 285 284 285 286 286 287 287 286 272 270 274 272 269 267 258 249 249 249 259 266 277 282 274 268 263 251 236 200 197 196 214
299 297 295 295 293 291 289 288 290 291 291 290 293 291 288 282 276 276 272 268 266 269 265 263 264 260 250 242 238 248 259 271 277 281 277 259 238 229 220 223 197 183 238
298 295 293 293 293 292 292 292 291 289 288 284 282 281 280 284 286 286 278 270 274 271 272 266 271 273 276 239 242 253 266 272 271 270 258 237 198 203 196 178 166 185 198
296 295 297 296 294 296 292 291 288 284 281 280 278 278 281 282 283 283 279 285 293 282 269 261 264 263 274 272 263 257 261 265 266 242 237 206 184 176 164 183 201 210 167
297 295 297 299 294 290 287 285 283 279 275 274 277 279 282 284 282 279 277 277 287 311 293 264 254 253 253 257 260 253 259 260 229 205 214 188 177 177 206 207 209 207 179
297 294 290 288 291 291 286 283 278 279 273 276 277 277 277 277 276 276 272 287 280 303 328 286 265 243 247 245 237 251 254 233 205 204 207 202 211 223 244 233 222 191 189
292 294 294 295 295 292 291 293 288 282 288 285 282 277 276 273 280 278 277 277 274 281 289 285 263 258 262 247 217 259 222 217 191 207 218 224 214 207 216 239 219 192 191
296 297 297 296 293 292 291 290 293 303 303 302 301 298 293 287 288 283 277 275 271 266 248 266 259 261 267 216 232 243 212 190 172 206 228 253 239 233 233 213 212 185 194
298 296 293 291 289 289 293 297 302 309 316 317 320 318 317 315 300 291 284 271 254 233 230 247 261 259 269 264 203 188 188 183 189 199 233 263 246 218 205 206 200 189 188
304 300 302 303 303 310 313 312 315 312 311 314 321 327 335 339 340 307 272 238 234 224 216 223 241 260 276 263 214 173 167 169 197 223 238 254 253 212 214 209 176 199 188
312 320 326 324 327 330 330 331 327 327 327 328 329 331 338 341 340 335 273 231 230 228 226 229 230 251 259 251 226 179 159 170 181 212 231 257 224 211 188 191 160 172 183
334 341 342 343 347 346 344 340 336 337 337 335 332 332 343 336 335 335 318 267 238 227 234 223 223 242 250 231 211 203 153 154 221 240 239 254 200 196 198 173 190 202 202
358 357 1 2 1 358 354 348 348 348 343 340 338 341 349 349 342 343 336 305 262 241 240 233 215 238 244 198 202 202 148 167 259 226 224 225 212 200 191 194 196 207 199
14 16 18 15 11 4 2 1 358 355 351 348 347 348 350 348 346 342 342 337 313 264 229 265 234 216 226 231 229 210 153 174 197 188 225 221 216 202 203 196 202 202 204
24 28 23 22 15 14 11 4 1 359 358 356 354 353 353 351 349 351 346 338 318 248 254 274 263 229 225 214 208 209 180 181 10 44 3 287 232 210 216 202 208 211 194
34 30 32 26 21 17 16 15 13 6 4 1 357 355 353 354 355 354 357 348 321 296 257 213 230 244 257 209 221 218 174 230 37 336 332 319 285 224 203 209 197 174 175
33 32 29 32 26 22 17 14 13 11 10 6 2 359 357 355 353 351 353 2 2 280 270 261 229 226 228 234 227 239 248 255 265 292 312 290 256 230 210 206 167 185 176